User: anonymous   Login
Location: Unspecified
(0.0000°N, 0.0000°E)
Time: 11:29:49
(UTC+01:00)
Language:

SeaSat 1 - Orbit

View from above orbital plane
View from above orbital plane
View from above satellite
View from above satellite

Ground track
Ground track

The orbit data is extracted from the following two-line orbital elements,

1 10967U 78064A   17021.91523014 -.00000018 +00000-0 +35015-4 0  9992
2 10967 108.0097 353.7729 0001373 263.8867 096.2121 14.43614990025267
Epoch (UTC): 21 January 2017 21:57:55
Eccentricity: 0.0001373
inclination: 108.0097°
perigee height: 745 km
apogee height: 747 km
right ascension of ascending node: 353.7729°
argument of perigee: 263.8867°
revolutions per day: 14.43614990
mean anomaly at epoch: 96.2121°
orbit number at epoch: 2526

The dashed part of the orbit path shows where the satellite is in the earth's shadow,  

DLR